Regional Weather Roundup
Issued by NWS Charleston, SC

Current Version | Previous Version | Graphics & Text | Print | Product List | Glossary On
Versions: 1 2 3 4 5 6 7 8 9 10 11 12 13 14 15 16 17 18 19 20 21 22 23 24 25 26 27 28 29 30 31 32 33 34 35 36 37 38 39 40 41 42 43 44 45 46 47 48 49 50
170 ASUS42 KCHS 041228 RWRCHS REGIONAL WEATHER ROUNDUP NATIONAL WEATHER SERVICE CHARLESTON SC 800 AM EDT WED MAY 04 2016 NOTE: "FAIR" INDICATES FEW OR NO CLOUDS BELOW 12,000 FEET WITH NO SIGNIFICANT WEATHER AND/OR OBSTRUCTIONS TO VISIBILITY. NOT ALL STATIONS ARE QUALITY CONTROLLED. USE DATA WITH CAUTION... ESPECIALLY DEWPOINT OBSERVATIONS. SCZ027-030-031-034>040-042>050-041300- ...SOUTHEAST SOUTH CAROLINA... CITY SKY/WX TMP DP RH WIND PRES REMARKS N CHARLESTON PTSUNNY 68 64 87 W9 29.73S 6HR MIN TEMP: 67; 6HR MAX TEMP: 68; WATERFRONT PRK N/A 69 66 90 VRB3 29.72S MOUNT PLEASANT CLOUDY 70 66 88 W6 29.73S JOHNS ISLAND CLOUDY 70 66 88 W8 29.74S PINOPOLIS N/A 70 66 88 SW7 29.63F MONCKS CORNER CLOUDY 64 61 88 SW7 29.73S SUMMERVILLE CLOUDY 66 66 100 SW3 29.75S BEAUFORT MCAS CLOUDY 68 66 93 W6 29.75S 6HR MIN TEMP: 68; 6HR MAX TEMP: 69; 6HR PCP: TRACE; BEAUFORT ARPT CLOUDY 70 64 83 W9 29.75S HILTON HEAD IS PTSUNNY 68 64 88 SW6 29.75F WALTERBORO CLOUDY 70 70 100 W6 29.75F ALLENDALE FAIR 66 61 82 CALM 29.75F ...SOUTHERN MIDLANDS AND PEE DEE... CITY SKY/WX TMP DP RH WIND PRES REMARKS GEORGETOWN CLOUDY 64 64 100 SW6 29.72F KINGSTREE PTSUNNY 68 63 83 SW3 29.71S ORANGEBURG PTSUNNY 66 57 72 NW10 29.74R 6HR MIN TEMP: 66; 6HR MAX TEMP: 69; BARNWELL FAIR 70 63 78 CALM 29.77S AIKEN FAIR 61 54 77 W5 29.80S MANNING FAIR 66 61 82 W5 29.72S COLUMBIA MOSUNNY 67 54 63 NW10 29.74R 6HR MIN TEMP: 65; 6HR MAX TEMP: 69; SUMTER SUNNY 65 58 79 NW10 29.70R 6HR MIN TEMP: 64; 6HR MAX TEMP: 68; 6HR PCP: 0.01; FLORENCE CLOUDY 68 63 84 N9 29.70R 6HR MIN TEMP: 68; 6HR MAX TEMP: 71; MYRTLE BEACH CLOUDY 70 61 73 SW12 29.74R N MYRTLE BEACH LGT RAIN 68 65 90 SW7 29.70R 6HR MIN TEMP: 68; 6HR MAX TEMP: 71; 6HR PCP: 0.02; $$ GAZ063-065-086>088-099>101-113>116-118-119-134>141-150-041300- ...SOUTHEAST GEORGIA... CITY SKY/WX TMP DP RH WIND PRES REMARKS SAVANNAH ARPT PTSUNNY 69 65 86 W7 29.77S 6HR MIN TEMP: 68; 6HR MAX TEMP: 69; 6HR PCP: TRACE; HUNTER AAF PTSUNNY 69 69 100 W8 29.74S 6HR MIN TEMP: 68; 6HR MAX TEMP: 69; 6HR PCP: 0.01; FORT STEWART CLOUDY 68 65 91 CALM 29.76R 6HR MIN TEMP: 67; 6HR MAX TEMP: 69; 6HR PCP: 0.01; STATESBORO MOSUNNY 69 64 84 NW5 29.78S SYLVANIA PTSUNNY 67 63 87 NW8 29.78S CLAXTON FAIR 68 64 88 W7 29.79R ...CSRA...CENTRAL AND FAR SOUTHEAST GEORGIA... CITY SKY/WX TMP DP RH WIND PRES REMARKS THOMSON SUNNY 61 56 82 W8 29.83S AUGUSTA-BUSH SUNNY 63 54 72 W8 29.77R 6HR MIN TEMP: 61; 6HR MAX TEMP: 69; AUGUSTA-DANIEL SUNNY 62 51 67 NW8 29.78R SWAINSBORO FAIR 63 55 77 NW8 29.81R VIDALIA SUNNY 66 57 72 NW7 29.80R EASTMAN FAIR 64 56 77 NW5 29.84S HAZLEHURST PTSUNNY 67 62 83 NW3 29.81R ALMA PTSUNNY 66 62 87 NW6 29.79S 6HR MIN TEMP: 66; 6HR MAX TEMP: 68; WAYCROSS CLOUDY 68 66 93 NW5 29.80R JESUP CLOUDY 72 68 88 NW5 29.79R BAXLEY PTSUNNY 68 68 100 NW5 29.79S BRUNSWICK PTSUNNY 73 70 88 NW6 29.79S SAINT SIMONS CLOUDY 71 67 87 NW7 29.77R 6HR MIN TEMP: 71; 6HR MAX TEMP: 73; $$ SCZ027-028-034-036>038-045-046-048>050-GAZ119-141-041300- ...LAKE AND SUPPLEMENTAL COASTAL OBSERVATIONS... STATION/POSITION TIME TEMP WIND PRES WAVE SWELL AIR SEA DIR/SP/G HT/PER HT/PER/DIR (UTC) (F) (DEG/KT/KT) (MB) (FT/S) (FT/S/D) WINYAH BAY 1100 69 230/ 7 1005.0 LAKE MURRAY 1100 62 290/ 4/ 8 1006.8R ACE BASIN NERRS 1100 68 250/ 2 1008.0R FORT PULASKI 1200 70 74 300/ 10/ 12 1007.7F SAPELO ISLAND 1100 70 280/ 8 1008.0R $$ ANZ835-935-AMZ111-154-330-350-352-354-370-450-454-472-041300- ...C-MAN AND BUOY OBSERVATIONS... STATION/POSITION TIME TEMP WIND PRES WAVE SWELL AIR SEA DIR/SP/G HT/PER HT/PER/DIR (UTC) (F) (DEG/KT/KT) (MB) (FT/S) (FT/S/D) BUOY 41004 1150 73 74 260/ 12/ 14 1005.8S 3/ 7 2/ 7 BUOY 41008 NOT AVBL FOLLY BEACH CMAN 1200 69 270/ 5/ 8 1006.7F CAPERS NEARSHORE 1108 70 71 270/ 10/ 14 1006.4R FRIPP NEARSHORE 1208 71 73 300/ 12/ 16 1006.6R STATION/POSITION TIME TEMP WIND PRES WAVE SWELL AIR SEA DIR/SP/G HT/PER HT/PER/DIR (UTC) (F) (DEG/KT/KT) (MB) (FT/S) (FT/S/D) 5E ST. MARYS GA 1121 73 N/A 2/ 7 FRYING PAN BUOY 1200 74 73 200/ 17/ 21 1005.4F BUOY 41025 1150 71 72 220/ 16/ 19 1005.4R 3/ 7 2/170/ 7 CAPE LOOKOUT NC 1200 69 250/ 10/ 12 1004.8F BUOY 41002 1150 68 74 300/ 23/ 29 1009.7R 5/ 7 2/110/10 BUOY 41010 1120 78 78 200/ 12/ 14 1009.3R ST AUGUSTINE FL 1200 72 71 210/ 6/ 6 1009.2F $$

USA.gov is the U.S. government's official web portal to all federal, state and local government web resources and services.